Location: Guferjoch
(46.7462°N, 8.4506°E)
Time: 23:05:27
(UTC+00:00)

CZ-4C R/B - Pass Details

Date: 14 July 2020
Orbit: 409 x 491 km, 97.7° (Epoch: 14 August)

Event Time Altitude Azimuth Distance (km) Brightness Sun altitude
Rises 02:22:50 0° 149° (SSE) 2,379 6.4 -11.5°
Reaches altitude 10° 02:24:56 10° 141° (SE) 1,507 5.5 -11.3°
Maximum altitude 02:27:55 37° 72° (ENE) 665 4.3 -11.0°
Drops below altitude 10° 02:30:54 10° 3° (N) 1,496 6.4 -10.6°
Sets 02:32:58 0° 355° (N) 2,359 7.2 -10.4°
